Terminal Aerodrome Forecast
Issued by NWS State College, PA

Home | Current Version | Previous Version | Text Only | Print | Product List | Glossary On
Versions: 1 2 3 4 5 6 7 8 9 10 11 12 13 14 15 16 17 18 19 20 21 22 23 24 25 26 27 28 29 30 31 32 33 34 35 36 37 38 39 40 41 42 43 44 45 46 47 48 49 50
000
FTUS41 KCTP 230526
TAFMDT
TAF
KMDT 230526Z 2306/2406 VRB03KT 3SM BR VCSH OVC013
     FM230900 09012G20KT 1SM -RA BR OVC008 WS020/09040KT
     FM231500 08015G28KT 1 1/2SM RA BR OVC005 WS020/09050KT
     FM240000 03015G28KT 3SM -RA BR OVC008=

USA.gov is the U.S. government's official web portal to all federal, state and local government web resources and services.